Time,TemperatureF,DewpointF,PressureIn,WindDirection,WindDirectionDegrees,WindSpeedMPH,WindSpeedGustMPH,Humidity,HourlyPrecipIn,Conditions,Clouds,dailyrainin,SoftwareType,DateUTC
2013-01-28 00:04:00,28.0,26.0,-100.00,ESE,110,6.0,9.0,90,-99.99,,,-99.99,,2013-01-28 05:04:00,
2013-01-28 00:11:00,28.0,26.0,-100.00,ENE,75,6.0,11.0,90,-99.99,,,-99.99,,2013-01-28 05:11:00,
2013-01-28 00:21:00,28.0,26.0,-100.00,East,80,2.0,9.0,89,-99.99,,,-99.99,,2013-01-28 05:21:00,
2013-01-28 00:32:00,28.0,26.0,-100.00,East,95,3.0,6.0,89,-99.99,,,-99.99,,2013-01-28 05:32:00,
2013-01-28 00:42:00,28.0,25.0,-100.00,East,100,2.0,9.0,88,-99.99,,,-99.99,,2013-01-28 05:42:00,
2013-01-28 00:52:00,28.0,25.0,-100.00,East,80,3.0,7.0,87,-99.99,,,-99.99,,2013-01-28 05:52:00,
2013-01-28 01:02:00,28.0,25.0,-100.00,ESE,105,6.0,8.0,86,-99.99,,,-99.99,,2013-01-28 06:02:00,
2013-01-28 01:11:00,29.0,25.0,-100.00,ESE,105,6.0,10.0,85,-99.99,,,-99.99,,2013-01-28 06:11:00,
2013-01-28 01:22:00,29.0,24.0,-100.00,East,95,7.0,15.0,83,-99.99,,,-99.99,,2013-01-28 06:22:00,
2013-01-28 01:32:00,29.0,24.0,-100.00,East,100,4.0,9.0,82,-99.99,,,-99.99,,2013-01-28 06:32:00,
2013-01-28 01:42:00,29.0,25.0,-100.00,East,95,5.0,13.0,81,-99.99,,,-99.99,,2013-01-28 06:42:00,
2013-01-28 01:52:00,30.0,25.0,-100.00,ESE,115,6.0,11.0,82,-99.99,,,-99.99,,2013-01-28 06:52:00,
2013-01-28 02:03:00,30.0,26.0,-100.00,ESE,105,7.0,12.0,83,-99.99,,,-99.99,,2013-01-28 07:03:00,
2013-01-28 02:11:00,30.0,26.0,-100.00,ESE,110,5.0,12.0,83,-99.99,,,-99.99,,2013-01-28 07:11:00,
2013-01-28 02:21:00,30.0,26.0,-100.00,East,100,6.0,10.0,84,-99.99,,,-99.99,,2013-01-28 07:21:00,
2013-01-28 02:32:00,31.0,27.0,-100.00,ESE,115,4.0,10.0,85,-99.99,,,-99.99,,2013-01-28 07:32:00,
2013-01-28 02:42:00,31.0,27.0,-100.00,ESE,105,4.0,11.0,85,-99.99,,,-99.99,,2013-01-28 07:42:00,
2013-01-28 02:51:00,31.0,28.0,-100.00,East,100,6.0,9.0,86,-99.99,,,-99.99,,2013-01-28 07:51:00,
2013-01-28 03:01:00,32.0,29.0,-100.00,ESE,105,4.0,10.0,87,-99.99,,,-99.99,,2013-01-28 08:01:00,
2013-01-28 03:11:00,32.0,29.0,-100.00,ESE,110,7.0,13.0,89,-99.99,,,-99.99,,2013-01-28 08:11:00,
2013-01-28 03:21:00,32.0,30.0,-100.00,ESE,110,7.0,14.0,90,-99.99,,,-99.99,,2013-01-28 08:21:00,
2013-01-28 03:32:00,32.0,30.0,-100.00,ESE,110,6.0,11.0,90,-99.99,,,-99.99,,2013-01-28 08:32:00,
2013-01-28 03:42:00,32.0,30.0,-100.00,East,95,4.0,10.0,90,-99.99,,,-99.99,,2013-01-28 08:42:00,
2013-01-28 03:52:00,33.0,30.0,-100.00,SW,230,1.0,11.0,91,-99.99,,,-99.99,,2013-01-28 08:52:00,
2013-01-28 04:02:00,33.0,30.0,-100.00,ESE,120,4.0,8.0,91,-99.99,,,-99.99,,2013-01-28 09:02:00,
2013-01-28 04:11:00,33.0,31.0,-100.00,ENE,75,4.0,9.0,91,-99.99,,,-99.99,,2013-01-28 09:11:00,
2013-01-28 04:22:00,33.0,31.0,-100.00,East,90,4.0,9.0,91,-99.99,,,-99.99,,2013-01-28 09:22:00,
2013-01-28 04:32:00,33.0,31.0,-100.00,East,90,4.0,10.0,91,-99.99,,,-99.99,,2013-01-28 09:32:00,
2013-01-28 04:42:00,33.0,31.0,-100.00,East,85,4.0,9.0,92,-99.99,,,-99.99,,2013-01-28 09:42:00,
2013-01-28 04:52:00,34.0,31.0,-100.00,East,95,6.0,9.0,92,-99.99,,,-99.99,,2013-01-28 09:52:00,
2013-01-28 05:02:00,34.0,32.0,-100.00,ESE,115,4.0,9.0,92,-99.99,,,-99.99,,2013-01-28 10:02:00,
2013-01-28 05:11:00,34.0,32.0,-100.00,ESE,110,7.0,14.0,92,-99.99,,,-99.99,,2013-01-28 10:11:00,
2013-01-28 05:21:00,34.0,32.0,-100.00,ESE,110,6.0,9.0,92,-99.99,,,-99.99,,2013-01-28 10:21:00,
2013-01-28 05:32:00,34.0,32.0,-100.00,ESE,120,6.0,12.0,92,-99.99,,,-99.99,,2013-01-28 10:32:00,
2013-01-28 05:42:00,34.0,32.0,-100.00,ESE,110,7.0,12.0,92,-99.99,,,-99.99,,2013-01-28 10:42:00,
2013-01-28 05:51:00,35.0,33.0,-100.00,SE,140,5.0,13.0,92,-99.99,,,-99.99,,2013-01-28 10:51:00,
2013-01-28 06:02:00,35.0,33.0,-100.00,ESE,105,6.0,13.0,92,-99.99,,,-99.99,,2013-01-28 11:02:00,
2013-01-28 06:11:00,35.0,33.0,-100.00,SE,125,3.0,12.0,92,-99.99,,,-99.99,,2013-01-28 11:11:00,
2013-01-28 06:22:00,35.0,33.0,-100.00,SE,125,6.0,12.0,92,-99.99,,,-99.99,,2013-01-28 11:22:00,
2013-01-28 06:32:00,35.0,33.0,-100.00,ESE,120,6.0,14.0,92,-99.99,,,-99.99,,2013-01-28 11:32:00,
2013-01-28 06:42:00,35.0,33.0,-100.00,ESE,105,6.0,14.0,92,-99.99,,,-99.99,,2013-01-28 11:42:00,
2013-01-28 06:52:00,36.0,34.0,-100.00,East,95,4.0,10.0,92,-99.99,,,-99.99,,2013-01-28 11:52:00,
2013-01-28 07:03:00,36.0,34.0,-100.00,ESE,105,4.0,10.0,92,-99.99,,,-99.99,,2013-01-28 12:03:00,
2013-01-28 07:12:00,36.0,34.0,-100.00,ESE,105,3.0,9.0,92,-99.99,,,-99.99,,2013-01-28 12:12:00,
2013-01-28 07:23:00,36.0,34.0,-100.00,ESE,105,4.0,7.0,92,-99.99,,,-99.99,,2013-01-28 12:23:00,
2013-01-28 07:33:00,37.0,35.0,-100.00,ESE,120,5.0,11.0,92,-99.99,,,-99.99,,2013-01-28 12:33:00,
2013-01-28 07:42:00,37.0,35.0,-100.00,SE,130,3.0,9.0,92,-99.99,,,-99.99,,2013-01-28 12:42:00,
2013-01-28 07:52:00,37.0,35.0,-100.00,SE,125,3.0,7.0,92,-99.99,,,-99.99,,2013-01-28 12:52:00,
2013-01-28 08:03:00,37.0,35.0,-100.00,SE,125,4.0,12.0,92,-99.99,,,-99.99,,2013-01-28 13:03:00,
2013-01-28 08:12:00,37.0,35.0,-100.00,ESE,110,4.0,11.0,92,-99.99,,,-99.99,,2013-01-28 13:12:00,
2013-01-28 08:23:00,37.0,35.0,-100.00,SE,140,4.0,11.0,92,-99.99,,,-99.99,,2013-01-28 13:23:00,
2013-01-28 08:33:00,37.0,35.0,-100.00,ESE,110,4.0,11.0,92,-99.99,,,-99.99,,2013-01-28 13:33:00,
2013-01-28 08:42:00,37.0,35.0,-100.00,ESE,110,6.0,13.0,92,-99.99,,,-99.99,,2013-01-28 13:42:00,
2013-01-28 08:52:00,37.0,35.0,-100.00,SSE,160,5.0,11.0,92,-99.99,,,-99.99,,2013-01-28 13:52:00,
2013-01-28 09:03:00,37.0,35.0,-100.00,SE,130,3.0,9.0,92,-99.99,,,-99.99,,2013-01-28 14:03:00,
2013-01-28 09:12:00,37.0,35.0,-100.00,ESE,115,3.0,11.0,92,-99.99,,,-99.99,,2013-01-28 14:12:00,
2013-01-28 09:22:00,37.0,35.0,-100.00,ESE,105,5.0,9.0,92,-99.99,,,-99.99,,2013-01-28 14:22:00,
2013-01-28 09:33:00,38.0,36.0,-100.00,East,100,4.0,9.0,92,-99.99,,,-99.99,,2013-01-28 14:33:00,
2013-01-28 09:43:00,38.0,36.0,-100.00,East,100,3.0,7.0,92,-99.99,,,-99.99,,2013-01-28 14:43:00,
2013-01-28 09:52:00,38.0,36.0,-100.00,ESE,115,5.0,9.0,92,-99.99,,,-99.99,,2013-01-28 14:52:00,
2013-01-28 10:03:00,38.0,36.0,-100.00,ESE,110,4.0,7.0,92,-99.99,,,-99.99,,2013-01-28 15:03:00,
2013-01-28 10:12:00,39.0,37.0,-100.00,SE,140,2.0,9.0,92,-99.99,,,-99.99,,2013-01-28 15:12:00,
2013-01-28 10:23:00,39.0,37.0,-100.00,SE,135,1.0,8.0,92,-99.99,,,-99.99,,2013-01-28 15:23:00,
2013-01-28 10:33:00,39.0,37.0,-100.00,SSE,150,2.0,7.0,92,-99.99,,,-99.99,,2013-01-28 15:33:00,
2013-01-28 10:43:00,40.0,38.0,-100.00,SSE,160,1.0,11.0,92,-99.99,,,-99.99,,2013-01-28 15:43:00,
2013-01-28 10:52:00,40.0,38.0,-100.00,ESE,115,2.0,9.0,92,-99.99,,,-99.99,,2013-01-28 15:52:00,
2013-01-28 11:04:00,40.0,38.0,-100.00,East,100,4.0,7.0,92,-99.99,,,-99.99,,2013-01-28 16:04:00,
2013-01-28 11:12:00,41.0,38.0,-100.00,SE,135,4.0,7.0,92,-99.99,,,-99.99,,2013-01-28 16:12:00,
2013-01-28 11:22:00,41.0,38.0,-100.00,ENE,75,1.0,8.0,92,-99.99,,,-99.99,,2013-01-28 16:22:00,
2013-01-28 11:33:00,41.0,39.0,-100.00,SSE,155,3.0,11.0,92,-99.99,,,-99.99,,2013-01-28 16:33:00,
2013-01-28 11:43:00,41.0,39.0,-100.00,SSE,150,1.0,7.0,92,-99.99,,,-99.99,,2013-01-28 16:43:00,
2013-01-28 11:52:00,41.0,39.0,-100.00,ESE,110,3.0,7.0,92,-99.99,,,-99.99,,2013-01-28 16:52:00,
2013-01-28 12:02:00,41.0,39.0,-100.00,SE,125,4.0,11.0,92,-99.99,,,-99.99,,2013-01-28 17:02:00,
2013-01-28 12:12:00,41.0,39.0,-100.00,South,190,3.0,11.0,92,-99.99,,,-99.99,,2013-01-28 17:12:00,
2013-01-28 12:23:00,42.0,40.0,-100.00,South,185,3.0,6.0,92,-99.99,,,-99.99,,2013-01-28 17:23:00,
2013-01-28 12:33:00,42.0,40.0,-100.00,SE,125,4.0,9.0,92,-99.99,,,-99.99,,2013-01-28 17:33:00,
2013-01-28 12:42:00,42.0,40.0,-100.00,SE,145,5.0,10.0,92,-99.99,,,-99.99,,2013-01-28 17:42:00,
2013-01-28 12:52:00,42.0,40.0,-100.00,SSE,160,2.0,9.0,92,-99.99,,,-99.99,,2013-01-28 17:52:00,
2013-01-28 13:03:00,42.0,40.0,-100.00,SSW,200,2.0,7.0,92,-99.99,,,-99.99,,2013-01-28 18:03:00,
2013-01-28 13:12:00,42.0,40.0,-100.00,ESE,105,1.0,6.0,92,-99.99,,,-99.99,,2013-01-28 18:12:00,
2013-01-28 13:23:00,42.0,40.0,-100.00,South,185,2.0,7.0,92,-99.99,,,-99.99,,2013-01-28 18:23:00,
2013-01-28 13:33:00,42.0,40.0,-100.00,South,175,2.0,9.0,92,-99.99,,,-99.99,,2013-01-28 18:33:00,
2013-01-28 13:42:00,42.0,40.0,-100.00,SE,130,3.0,9.0,92,-99.99,,,-99.99,,2013-01-28 18:42:00,
2013-01-28 13:52:00,42.0,40.0,-100.00,SE,125,2.0,11.0,92,-99.99,,,-99.99,,2013-01-28 18:52:00,
2013-01-28 14:02:00,43.0,41.0,-100.00,ESE,115,4.0,6.0,92,-99.99,,,-99.99,,2013-01-28 19:02:00,
2013-01-28 14:12:00,42.0,40.0,-100.00,SE,125,1.0,6.0,92,-99.99,,,-99.99,,2013-01-28 19:12:00,
2013-01-28 14:22:00,43.0,41.0,-100.00,SSE,150,2.0,7.0,92,-99.99,,,-99.99,,2013-01-28 19:22:00,
2013-01-28 14:33:00,43.0,41.0,-100.00,ESE,115,2.0,7.0,92,-99.99,,,-99.99,,2013-01-28 19:33:00,
2013-01-28 14:42:00,43.0,41.0,-100.00,SW,230,2.0,6.0,92,-99.99,,,-99.99,,2013-01-28 19:42:00,
2013-01-28 14:52:00,44.0,41.0,-100.00,SSE,150,2.0,9.0,92,-99.99,,,-99.99,,2013-01-28 19:52:00,
2013-01-28 15:03:00,44.0,42.0,-100.00,ESE,120,2.0,7.0,92,-99.99,,,-99.99,,2013-01-28 20:03:00,
2013-01-28 15:12:00,44.0,42.0,-100.00,SSE,155,4.0,7.0,92,-99.99,,,-99.99,,2013-01-28 20:12:00,
2013-01-28 15:22:00,44.0,42.0,-100.00,South,170,2.0,11.0,92,-99.99,,,-99.99,,2013-01-28 20:22:00,
2013-01-28 15:33:00,44.0,42.0,-100.00,SE,130,2.0,6.0,92,-99.99,,,-99.99,,2013-01-28 20:33:00,
2013-01-28 15:42:00,44.0,42.0,-100.00,SSE,165,2.0,6.0,92,-99.99,,,-99.99,,2013-01-28 20:42:00,
2013-01-28 15:52:00,44.0,42.0,-100.00,SE,125,2.0,4.0,92,-99.99,,,-99.99,,2013-01-28 20:52:00,
2013-01-28 16:03:00,44.0,42.0,-100.00,SE,135,1.0,6.0,92,-99.99,,,-99.99,,2013-01-28 21:03:00,
2013-01-28 16:12:00,44.0,42.0,-100.00,SSW,205,2.0,6.0,92,-99.99,,,-99.99,,2013-01-28 21:12:00,
2013-01-28 16:22:00,44.0,42.0,-100.00,South,175,1.0,4.0,92,-99.99,,,-99.99,,2013-01-28 21:22:00,
2013-01-28 16:33:00,44.0,42.0,-100.00,ESE,105,1.0,5.0,92,-99.99,,,-99.99,,2013-01-28 21:33:00,
2013-01-28 16:43:00,44.0,42.0,-100.00,ESE,110,1.0,5.0,92,-99.99,,,-99.99,,2013-01-28 21:43:00,
2013-01-28 16:52:00,44.0,42.0,-100.00,SE,135,1.0,7.0,92,-99.99,,,-99.99,,2013-01-28 21:52:00,
2013-01-28 17:02:00,44.0,42.0,-100.00,South,175,1.0,4.0,92,-99.99,,,-99.99,,2013-01-28 22:02:00,
2013-01-28 17:12:00,44.0,42.0,-100.00,SSW,200,2.0,6.0,92,-99.99,,,-99.99,,2013-01-28 22:12:00,
2013-01-28 17:23:00,44.0,42.0,-100.00,SE,145,1.0,4.0,92,-99.99,,,-99.99,,2013-01-28 22:23:00,
2013-01-28 17:33:00,44.0,41.0,-100.00,South,175,2.0,4.0,92,-99.99,,,-99.99,,2013-01-28 22:33:00,
2013-01-28 17:42:00,44.0,42.0,-100.00,SW,215,2.0,6.0,92,-99.99,,,-99.99,,2013-01-28 22:42:00,
2013-01-28 17:52:00,44.0,41.0,-100.00,South,190,1.0,4.0,92,-99.99,,,-99.99,,2013-01-28 22:52:00,
2013-01-28 18:02:00,44.0,42.0,-100.00,SSE,150,2.0,4.0,92,-99.99,,,-99.99,,2013-01-28 23:02:00,
2013-01-28 18:12:00,43.0,41.0,-100.00,SSW,210,1.0,4.0,92,-99.99,,,-99.99,,2013-01-28 23:12:00,
2013-01-28 18:22:00,44.0,41.0,-100.00,SSW,205,1.0,4.0,92,-99.99,,,-99.99,,2013-01-28 23:22:00,
2013-01-28 18:32:00,44.0,42.0,-100.00,SSW,200,2.0,6.0,92,-99.99,,,-99.99,,2013-01-28 23:32:00,
2013-01-28 18:42:00,44.0,42.0,-100.00,SE,140,2.0,6.0,92,-99.99,,,-99.99,,2013-01-28 23:42:00,
2013-01-28 18:52:00,44.0,42.0,-100.00,South,190,0.0,6.0,92,-99.99,,,-99.99,,2013-01-28 23:52:00,
2013-01-28 19:02:00,44.0,42.0,-100.00,South,190,1.0,5.0,92,-99.99,,,-99.99,,2013-01-29 00:02:00,
2013-01-28 19:12:00,44.0,42.0,-100.00,SSW,210,2.0,4.0,92,-99.99,,,-99.99,,2013-01-29 00:12:00,
2013-01-28 19:22:00,44.0,42.0,-100.00,SSE,150,2.0,6.0,92,-99.99,,,-99.99,,2013-01-29 00:22:00,
2013-01-28 19:33:00,44.0,42.0,-100.00,SW,225,1.0,4.0,92,-99.99,,,-99.99,,2013-01-29 00:33:00,
2013-01-28 19:42:00,45.0,42.0,-100.00,SSW,200,1.0,6.0,92,-99.99,,,-99.99,,2013-01-29 00:42:00,
2013-01-28 19:52:00,44.0,42.0,-100.00,SW,225,2.0,5.0,92,-99.99,,,-99.99,,2013-01-29 00:52:00,
2013-01-28 20:02:00,44.0,42.0,-100.00,NW,320,0.0,4.0,92,-99.99,,,-99.99,,2013-01-29 01:02:00,
2013-01-28 20:12:00,44.0,42.0,-100.00,South,175,1.0,3.0,92,-99.99,,,-99.99,,2013-01-29 01:12:00,
2013-01-28 20:23:00,42.0,40.0,-100.00,SW,235,0.0,2.0,92,-99.99,,,-99.99,,2013-01-29 01:23:00,
2013-01-28 20:32:00,42.0,40.0,-100.00,ESE,110,1.0,4.0,92,-99.99,,,-99.99,,2013-01-29 01:32:00,
2013-01-28 20:42:00,42.0,40.0,-100.00,SSW,195,0.0,2.0,92,-99.99,,,-99.99,,2013-01-29 01:42:00,
2013-01-28 20:52:00,42.0,40.0,-100.00,SW,220,0.0,3.0,92,-99.99,,,-99.99,,2013-01-29 01:52:00,
2013-01-28 21:02:00,42.0,40.0,-100.00,SE,125,0.0,2.0,92,-99.99,,,-99.99,,2013-01-29 02:02:00,
2013-01-28 21:12:00,41.0,39.0,-100.00,SE,135,0.0,1.0,92,-99.99,,,-99.99,,2013-01-29 02:12:00,
2013-01-28 21:22:00,41.0,38.0,-100.00,SSW,210,0.0,2.0,92,-99.99,,,-99.99,,2013-01-29 02:22:00,
2013-01-28 21:33:00,40.0,38.0,-100.00,SSE,165,0.0,1.0,92,-99.99,,,-99.99,,2013-01-29 02:33:00,
2013-01-28 21:42:00,40.0,37.0,-100.00,East,90,1.0,1.0,92,-99.99,,,-99.99,,2013-01-29 02:42:00,
2013-01-28 21:52:00,40.0,38.0,-100.00,East,85,0.0,2.0,92,-99.99,,,-99.99,,2013-01-29 02:52:00,
2013-01-28 22:03:00,39.0,37.0,-100.00,ENE,60,0.0,2.0,92,-99.99,,,-99.99,,2013-01-29 03:03:00,
2013-01-28 22:12:00,39.0,37.0,-100.00,East,80,1.0,1.0,92,-99.99,,,-99.99,,2013-01-29 03:12:00,
2013-01-28 22:22:00,39.0,37.0,-100.00,ENE,60,1.0,2.0,92,-99.99,,,-99.99,,2013-01-29 03:22:00,
2013-01-28 22:32:00,39.0,37.0,-100.00,East,90,0.0,1.0,92,-99.99,,,-99.99,,2013-01-29 03:32:00,
2013-01-28 22:42:00,38.0,36.0,-100.00,ENE,65,1.0,3.0,92,-99.99,,,-99.99,,2013-01-29 03:42:00,
2013-01-28 22:52:00,38.0,36.0,-100.00,NE,55,1.0,2.0,92,-99.99,,,-99.99,,2013-01-29 03:52:00,
2013-01-28 23:02:00,38.0,36.0,-100.00,East,85,1.0,2.0,92,-99.99,,,-99.99,,2013-01-29 04:02:00,
2013-01-28 23:11:00,38.0,36.0,-100.00,ENE,60,0.0,2.0,92,-99.99,,,-99.99,,2013-01-29 04:11:00,
2013-01-28 23:22:00,38.0,36.0,-100.00,East,95,0.0,1.0,92,-99.99,,,-99.99,,2013-01-29 04:22:00,
2013-01-28 23:32:00,38.0,36.0,-100.00,ESE,110,0.0,2.0,92,-99.99,,,-99.99,,2013-01-29 04:32:00,
2013-01-28 23:42:00,38.0,36.0,-100.00,East,85,1.0,1.0,92,-99.99,,,-99.99,,2013-01-29 04:42:00,
2013-01-28 23:52:00,38.0,36.0,-100.00,East,90,1.0,2.0,92,-99.99,,,-99.99,,2013-01-29 04:52:00,